Ranfurly, Alberta

Past 24 Hour Conditions

This table is a summary of hourly weather conditions for the past 24 hours. This summary includes the following parameters: temperature, humidity, dew point, wind speed and direction, air pressure, visibility and/or wind chill and humidex.
Date / Time
(MDT)
Conditions Temp (°C) Humidity (%) Dew Point (°C) Wind (km/h) Pressure (kPa) Vis (km) Wind Chill
17 April 2014
2:00 N/A -4 92 -5 ESE 18 102.0 N/A -10
1:00 N/A -4 91 -5 ESE 19 gust 29 102.1 N/A -10
00:00 N/A -3 92 -5 ESE 20 gust 30 102.1 N/A -9
16 April 2014
23:00 N/A -3 91 -4 SE 18 gust 32 102.2 N/A -9
22:00 N/A -3 93 -4 ESE 14 102.2 N/A -8
21:00 N/A -4 86 -6 ESE 16 102.3 N/A -9
20:00 N/A -3 77 -6 ESE 16 gust 27 102.3 N/A -8
19:00 N/A -2 76 -6 ESE 19 102.4 N/A -8
18:00 N/A -2 76 -6 SE 18 gust 27 102.4 N/A -7
17:00 N/A -2 75 -5 ESE 18 102.4 N/A -7
16:00 N/A -1   74 -5 SE 16 102.4 N/A -6
15:00 N/A -2 75 -6 SE 17 102.5 N/A -7
14:00 N/A -2 77 -6 SE 13 102.5 N/A -7
13:00 N/A -3 78 -6 ESE 19 102.4 N/A -8
12:00 N/A -2 75 -6 SE 17 102.4 N/A -8
11:00 N/A -3 80 -6 ESE 10 102.4 N/A -7
10:00 N/A -4 83 -6 ESE 10 102.4 N/A -8
9:00 N/A -5 88 -7 ESE 14 102.4 N/A -11
8:00 N/A -6 90 -7 ESE 12 102.3 N/A -11
7:00 N/A -8   97 -8 ESE 9 102.3 N/A -12
6:00 N/A -7 99 -7 ESE 7 102.2 N/A -10
5:00 N/A -7 99 -7 SE 5 102.2 N/A -10
4:00 N/A -7 100 -7 ESE 4 102.1 N/A -9
3:00 N/A -7 99 -7 ESE 6 102.1 N/A -10
2:00 N/A -6 95 -7 ESE 4 102.1 N/A -8
N/A
Not available
 ↑ 
Highest temperature
 ↓ 
Lowest temperature
*
Value not significant.

If you require additional historical weather information, please visit Climate Data Online.